START_TIME,STEP,MOV.,A46,t_acc.,A13,t_acc.,M47,t_acc.,A17,t_acc.,A28,t_acc.,M38,t_acc.
1989-08-26T15:00:26.150 ,1,0,,0,0.,4.8,0.,4.8,,0,0.,4.8,0.,4.8
1989-08-26T15:00:30.950 ,1,0,,0,0.,4.8,0.,4.8,,0,0.,4.8,0.,4.8
1989-08-26T15:00:35.750 ,1,0,,0,0.,4.8,0.,4.8,,0,0.,4.8,0.,4.8
1989-08-26T15:00:40.550 ,1,0,,0,0.,4.8,0.,4.8,,0,0.,4.8,0.,4.8
1989-08-26T15:00:45.350 ,1,0,,0,0.,4.8,0.,4.8,,0,0.,4.8,0.,4.8
1989-08-26T15:00:50.150 ,0,0,,0,0.,4.8,0.,4.8,,0,0.,4.8,0.,4.8
1989-08-26T15:00:54.950 ,0,0,,0,0.,4.8,0.,4.8,,0,0.,4.8,0.,4.8
1989-08-26T15:00:59.750 ,0,0,,0,1.,4.8,0.,4.8,,0,0.,4.8,0.,4.8
1989-08-26T15:01:04.550 ,0,0,,0,0.,4.8,0.,4.8,,0,0.,4.8,0.,4.8
1989-08-26T15:01:09.350 ,0,0,,0,0.,4.8,0.,4.8,,0,0.,4.8,0.,4.8
1989-08-26T15:01:14.150 ,0,0,,0,0.,4.8,0.,4.8,,0,0.,4.8,0.,4.8
1989-08-26T15:01:18.950 ,0,0,,0,0.,4.8,0.,4.8,,0,0.,4.8,0.,4.8
1989-08-26T15:01:23.750 ,0,0,,0,0.,4.8,0.,4.8,,0,0.,4.8,0.,4.8
1989-08-26T15:01:28.550 ,0,0,,0,0.,4.8,0.,4.8,,0,0.,4.8,0.,4.8
1989-08-26T15:01:33.350 ,0,0,,0,0.,4.8,0.,4.8,,0,0.,4.8,0.,4.8
1989-08-26T15:01:38.150 ,0,0,,0,0.,4.8,0.,4.8,,0,0.,4.8,0.,4.8
1989-08-26T15:01:42.950 ,0,0,,0,0.,4.8,0.,4.8,,0,0.,4.8,0.,4.8
1989-08-26T15:01:47.750 ,0,0,,0,1.,4.8,0.,4.8,,0,0.,4.8,0.,4.8
1989-08-26T15:01:52.550 ,0,0,,0,0.,4.8,0.,4.8,,0,0.,4.8,0.,4.8
1989-08-26T15:01:57.350 ,0,0,,0,0.,4.8,0.,4.8,,0,0.,4.8,0.,4.8
1989-08-26T15:02:02.150 ,0,0,,0,0.,4.8,0.,4.8,,0,0.,4.8,0.,4.8
1989-08-26T15:02:06.950 ,0,0,,0,0.,4.8,0.,4.8,,0,0.,4.8,0.,4.8
1989-08-26T15:02:11.750 ,0,0,,0,0.,4.8,0.,4.8,,0,0.,4.8,0.,4.8
1989-08-26T15:02:16.550 ,0,0,,0,0.,4.8,0.,4.8,,0,0.,4.8,0.,4.8
1989-08-26T15:02:21.350 ,0,0,,0,0.,4.8,0.,4.8,,0,0.,4.8,0.,4.8
1989-08-26T15:02:26.150 ,1,0,,0,0.,4.8,0.,4.8,,0,0.,4.8,0.,4.8
1989-08-26T15:02:30.950 ,1,0,,0,0.,4.8,0.,4.8,,0,0.,4.8,0.,4.8
1989-08-26T15:02:35.750 ,1,0,,0,1.,4.8,0.,4.8,,0,0.,4.8,0.,4.8
1989-08-26T15:02:40.550 ,1,0,,0,0.,4.8,0.,4.8,,0,0.,4.8,0.,4.8
1989-08-26T15:02:45.350 ,1,0,,0,0.,4.8,0.,4.8,,0,0.,4.8,0.,4.8
1989-08-26T15:02:50.150 ,1,0,,0,0.,4.8,0.,4.8,,0,0.,4.8,0.,4.8
1989-08-26T15:02:54.950 ,1,0,,0,0.,4.8,0.,4.8,,0,0.,4.8,0.,4.8
1989-08-26T15:02:59.750 ,1,0,,0,0.,4.8,0.,4.8,,0,0.,4.8,0.,4.8
1989-08-26T15:03:04.550 ,1,0,,0,0.,4.8,0.,4.8,,0,0.,4.8,0.,4.8
1989-08-26T15:03:09.350 ,1,0,,0,0.,4.8,0.,4.8,,0,0.,4.8,0.,4.8
1989-08-26T15:03:14.150 ,2,0,,0,0.,4.8,0.,4.8,,0,0.,4.8,0.,4.8
1989-08-26T15:03:18.950 ,2,0,,0,0.,4.8,0.,4.8,,0,0.,4.8,0.,4.8
1989-08-26T15:03:23.750 ,2,0,,0,1.,4.8,0.,4.8,,0,0.,4.8,0.,4.8
1989-08-26T15:03:28.550 ,2,0,,0,0.,4.8,0.,4.8,,0,0.,4.8,0.,4.8
1989-08-26T15:03:33.350 ,2,0,,0,0.,4.8,0.,4.8,,0,0.,4.8,0.,4.8
1989-08-26T15:03:38.150 ,2,0,,0,0.,4.8,0.,4.8,,0,0.,4.8,0.,4.8
1989-08-26T15:03:42.950 ,2,0,,0,0.,4.8,0.,4.8,,0,0.,4.8,0.,4.8
1989-08-26T15:03:47.750 ,2,0,,0,0.,4.8,0.,4.8,,0,0.,4.8,0.,4.8
1989-08-26T15:03:52.550 ,2,0,,0,0.,4.8,0.,4.8,,0,0.,4.8,0.,4.8
1989-08-26T15:03:57.350 ,2,0,,0,0.,4.8,0.,4.8,,0,0.,4.8,0.,4.8
1989-08-26T15:04:02.150 ,3,0,,0,0.,4.8,0.,4.8,,0,0.,4.8,0.,4.8
1989-08-26T15:04:06.950 ,3,0,,0,0.,4.8,0.,4.8,,0,0.,4.8,0.,4.8
1989-08-26T15:04:11.750 ,3,0,,0,1.,4.8,0.,4.8,,0,0.,4.8,0.,4.8
1989-08-26T15:04:16.550 ,3,0,,0,0.,4.8,0.,4.8,,0,0.,4.8,0.,4.8
1989-08-26T15:04:21.350 ,3,0,,0,0.,4.8,0.,4.8,,0,0.,4.8,0.,4.8
1989-08-26T15:04:26.150 ,3,0,,0,0.,4.8,0.,4.8,,0,0.,4.8,0.,4.8
1989-08-26T15:04:30.950 ,3,0,,0,0.,4.8,0.,4.8,,0,0.,4.8,0.,4.8
1989-08-26T15:04:35.750 ,3,0,,0,0.,4.8,0.,4.8,,0,0.,4.8,0.,4.8
1989-08-26T15:04:40.550 ,3,0,,0,0.,4.8,0.,4.8,,0,0.,4.8,0.,4.8
1989-08-26T15:04:45.350 ,3,0,,0,0.,4.8,0.,4.8,,0,0.,4.8,0.,4.8
1989-08-26T15:04:50.150 ,4,0,,0,0.,4.8,0.,4.8,,0,0.,4.8,0.,4.8
1989-08-26T15:04:54.950 ,4,0,,0,0.,4.8,0.,4.8,,0,0.,4.8,0.,4.8
1989-08-26T15:04:59.750 ,4,0,,0,1.,4.8,0.,4.8,,0,0.,4.8,0.,4.8
1989-08-26T15:05:04.550 ,4,0,,0,0.,4.8,0.,4.8,,0,0.,4.8,0.,4.8
1989-08-26T15:05:09.350 ,4,0,,0,0.,4.8,0.,4.8,,0,0.,4.8,0.,4.8
1989-08-26T15:05:14.150 ,4,0,,0,0.,4.8,0.,4.8,,0,0.,4.8,0.,4.8
1989-08-26T15:05:18.950 ,4,0,,0,0.,4.8,0.,4.8,,0,0.,4.8,0.,4.8
1989-08-26T15:05:23.750 ,4,0,,0,0.,4.8,0.,4.8,,0,0.,4.8,0.,4.8
1989-08-26T15:05:28.550 ,4,0,,0,0.,4.8,0.,4.8,,0,0.,4.8,0.,4.8
1989-08-26T15:05:33.350 ,4,0,,0,0.,4.8,0.,4.8,,0,0.,4.8,0.,4.8
1989-08-26T15:05:38.150 ,5,0,,0,0.,4.8,0.,4.8,,0,0.,4.8,0.,4.8
1989-08-26T15:05:42.950 ,5,0,,0,0.,4.8,0.,4.8,,0,0.,4.8,0.,4.8
1989-08-26T15:05:47.750 ,5,0,,0,1.,4.8,0.,4.8,,0,0.,4.8,0.,4.8
1989-08-26T15:05:52.550 ,5,0,,0,0.,4.8,0.,4.8,,0,0.,4.8,0.,4.8
1989-08-26T15:05:57.350 ,5,0,,0,0.,4.8,0.,4.8,,0,0.,4.8,0.,4.8
1989-08-26T15:06:02.150 ,5,1,,0,,0,,0,,0,,0,,0
1989-08-26T15:06:06.950 ,5,1,,0,,0,,0,,0,,0,,0
1989-08-26T15:06:11.750 ,5,1,,0,,0,,0,,0,,0,,0
1989-08-26T15:06:16.550 ,5,1,,0,,0,,0,,0,,0,,0
1989-08-26T15:06:21.350 ,5,1,,0,,0,,0,,0,,0,,0
1989-08-26T15:06:41.150 ,0,0,,0,,0,,0,,0,,0,,0
1989-08-26T15:06:45.950 ,0,0,,0,,0,,0,,0,,0,,0
1989-08-26T15:06:50.750 ,0,0,,0,,0,,0,,0,,0,,0
1989-08-26T15:06:55.550 ,0,0,,0,0.,4.8,0.,4.8,,0,0.,4.8,0.,4.8
1989-08-26T15:07:00.350 ,0,0,,0,0.,4.8,0.,4.8,,0,0.,4.8,0.,4.8
1989-08-26T15:06:50.150 ,0,0,,0,0.,4.8,0.,4.8,,0,0.,4.8,0.,4.8
1989-08-26T15:06:54.950 ,0,0,,0,0.,4.8,0.,4.8,,0,0.,4.8,0.,4.8
1989-08-26T15:06:59.750 ,0,0,,0,0.,4.8,0.,4.8,,0,0.,4.8,0.,4.8
1989-08-26T15:07:04.550 ,0,0,,0,0.,4.8,0.,4.8,,0,0.,4.8,0.,4.8
1989-08-26T15:07:09.350 ,0,0,,0,0.,4.8,0.,4.8,,0,0.,4.8,0.,4.8
1989-08-26T15:07:14.150 ,7,0,,0,0.,4.8,0.,4.8,,0,0.,4.8,0.,4.8
1989-08-26T15:07:18.950 ,7,0,,0,0.,4.8,0.,4.8,,0,0.,4.8,0.,4.8
1989-08-26T15:07:23.750 ,7,0,,0,1.,4.8,0.,4.8,,0,0.,4.8,0.,4.8
1989-08-26T15:07:28.550 ,7,0,,0,4.,4.8,0.,4.8,,0,0.,4.8,0.,4.8
1989-08-26T15:07:33.350 ,7,0,,0,4.,4.8,0.,4.8,,0,0.,4.8,0.,4.8
1989-08-26T15:07:38.150 ,7,0,,0,2.,4.8,0.,4.8,,0,0.,4.8,0.,4.8
1989-08-26T15:07:42.950 ,7,0,,0,4.,4.8,0.,4.8,,0,0.,4.8,0.,4.8
1989-08-26T15:07:47.750 ,7,0,,0,5.,4.8,0.,4.8,,0,0.,4.8,0.,4.8
1989-08-26T15:07:52.550 ,7,0,,0,0.,4.8,0.,4.8,,0,0.,4.8,0.,4.8
1989-08-26T15:07:57.350 ,7,0,,0,0.,4.8,0.,4.8,,0,0.,4.8,0.,4.8
1989-08-26T15:08:02.150 ,7,0,,0,0.,4.8,0.,4.8,,0,0.,4.8,0.,4.8
1989-08-26T15:08:06.950 ,7,0,,0,0.,4.8,0.,4.8,,0,0.,4.8,0.,4.8
1989-08-26T15:08:11.750 ,7,0,,0,2.,4.8,0.,4.8,,0,0.,4.8,0.,4.8
1989-08-26T15:08:16.550 ,7,0,,0,3.,4.8,0.,4.8,,0,0.,4.8,0.,4.8
1989-08-26T15:08:21.350 ,7,0,,0,2.,4.8,0.,4.8,,0,0.,4.8,0.,4.8
1989-08-26T15:08:26.150 ,7,0,,0,2.,4.8,0.,4.8,,0,0.,4.8,0.,4.8
1989-08-26T15:08:30.950 ,7,0,,0,1.,4.8,0.,4.8,,0,0.,4.8,0.,4.8
1989-08-26T15:08:35.750 ,7,0,,0,6.,4.8,0.,4.8,,0,0.,4.8,0.,4.8
1989-08-26T15:08:40.550 ,7,0,,0,0.,4.8,0.,4.8,,0,0.,4.8,0.,4.8
1989-08-26T15:08:45.350 ,7,0,,0,0.,4.8,0.,4.8,,0,0.,4.8,0.,4.8
1989-08-26T15:08:50.150 ,6,0,,0,0.,4.8,0.,4.8,,0,0.,4.8,0.,4.8
1989-08-26T15:08:54.950 ,6,0,,0,0.,4.8,0.,4.8,,0,0.,4.8,0.,4.8
1989-08-26T15:08:59.750 ,6,0,,0,1.,4.8,0.,4.8,,0,0.,4.8,0.,4.8
1989-08-26T15:09:04.550 ,6,0,,0,0.,4.8,0.,4.8,,0,0.,4.8,0.,4.8
1989-08-26T15:09:09.350 ,6,0,,0,0.,4.8,0.,4.8,,0,0.,4.8,0.,4.8
1989-08-26T15:09:14.150 ,6,0,,0,0.,4.8,0.,4.8,,0,0.,4.8,0.,4.8
1989-08-26T15:09:18.950 ,6,0,,0,0.,4.8,0.,4.8,,0,0.,4.8,0.,4.8
1989-08-26T15:09:23.750 ,6,0,,0,0.,4.8,0.,4.8,,0,0.,4.8,0.,4.8
1989-08-26T15:09:28.550 ,6,0,,0,0.,4.8,0.,4.8,,0,0.,4.8,0.,4.8
1989-08-26T15:09:33.350 ,6,0,,0,0.,4.8,0.,4.8,,0,0.,4.8,0.,4.8
1989-08-26T15:09:38.150 ,5,0,,0,0.,4.8,0.,4.8,,0,0.,4.8,0.,4.8
1989-08-26T15:09:42.950 ,5,0,,0,0.,4.8,0.,4.8,,0,0.,4.8,0.,4.8
1989-08-26T15:09:47.750 ,5,0,,0,1.,4.8,0.,4.8,,0,0.,4.8,0.,4.8
1989-08-26T15:09:52.550 ,5,0,,0,0.,4.8,0.,4.8,,0,0.,4.8,0.,4.8
1989-08-26T15:09:57.350 ,5,0,,0,0.,4.8,0.,4.8,,0,0.,4.8,0.,4.8
1989-08-26T15:10:02.150 ,5,0,,0,0.,4.8,0.,4.8,,0,0.,4.8,0.,4.8
1989-08-26T15:10:06.950 ,5,0,,0,0.,4.8,0.,4.8,,0,0.,4.8,0.,4.8
1989-08-26T15:10:11.750 ,5,0,,0,0.,4.8,0.,4.8,,0,0.,4.8,0.,4.8
1989-08-26T15:10:16.550 ,5,0,,0,0.,4.8,0.,4.8,,0,0.,4.8,0.,4.8
1989-08-26T15:10:21.350 ,5,0,,0,0.,4.8,0.,4.8,,0,0.,4.8,0.,4.8
1989-08-26T15:10:26.150 ,4,0,,0,0.,4.8,0.,4.8,,0,0.,4.8,0.,4.8
1989-08-26T15:10:30.950 ,4,0,,0,0.,4.8,0.,4.8,,0,0.,4.8,0.,4.8
1989-08-26T15:10:35.750 ,4,0,,0,1.,4.8,0.,4.8,,0,0.,4.8,0.,4.8
1989-08-26T15:10:40.550 ,4,0,,0,0.,4.8,0.,4.8,,0,0.,4.8,0.,4.8
1989-08-26T15:10:45.350 ,4,0,,0,0.,4.8,0.,4.8,,0,0.,4.8,0.,4.8
1989-08-26T15:10:50.150 ,4,0,,0,0.,4.8,0.,4.8,,0,0.,4.8,0.,4.8
1989-08-26T15:10:54.950 ,4,0,,0,0.,4.8,0.,4.8,,0,0.,4.8,0.,4.8
1989-08-26T15:10:59.750 ,4,0,,0,0.,4.8,0.,4.8,,0,0.,4.8,0.,4.8
1989-08-26T15:11:04.550 ,4,0,,0,0.,4.8,0.,4.8,,0,0.,4.8,0.,4.8
1989-08-26T15:11:09.350 ,4,0,,0,0.,4.8,0.,4.8,,0,0.,4.8,0.,4.8
1989-08-26T15:11:14.150 ,3,0,,0,0.,4.8,0.,4.8,,0,0.,4.8,0.,4.8
1989-08-26T15:11:18.950 ,3,0,,0,0.,4.8,0.,4.8,,0,0.,4.8,0.,4.8
1989-08-26T15:11:23.750 ,3,0,,0,1.,4.8,0.,4.8,,0,0.,4.8,0.,4.8
1989-08-26T15:11:28.550 ,3,0,,0,0.,4.8,0.,4.8,,0,0.,4.8,0.,4.8
1989-08-26T15:11:33.350 ,3,0,,0,0.,4.8,0.,4.8,,0,0.,4.8,0.,4.8
1989-08-26T15:11:38.150 ,3,0,,0,0.,4.8,0.,4.8,,0,0.,4.8,0.,4.8
1989-08-26T15:11:42.950 ,3,0,,0,0.,4.8,0.,4.8,,0,0.,4.8,0.,4.8
1989-08-26T15:11:47.750 ,3,0,,0,0.,4.8,0.,4.8,,0,0.,4.8,0.,4.8
1989-08-26T15:11:52.550 ,3,0,,0,0.,4.8,0.,4.8,,0,0.,4.8,0.,4.8
1989-08-26T15:11:57.350 ,3,0,,0,0.,4.8,0.,4.8,,0,0.,4.8,0.,4.8
1989-08-26T15:12:02.150 ,2,0,,0,0.,4.8,0.,4.8,,0,0.,4.8,0.,4.8
1989-08-26T15:12:06.950 ,2,0,,0,0.,4.8,0.,4.8,,0,0.,4.8,0.,4.8
1989-08-26T15:12:11.750 ,2,0,,0,1.,4.8,0.,4.8,,0,0.,4.8,0.,4.8
1989-08-26T15:12:16.550 ,2,0,,0,0.,4.8,0.,4.8,,0,0.,4.8,0.,4.8
1989-08-26T15:12:21.350 ,2,0,,0,0.,4.8,0.,4.8,,0,0.,4.8,0.,4.8
1989-08-26T15:12:26.150 ,2,0,,0,0.,4.8,0.,4.8,,0,0.,4.8,0.,4.8
1989-08-26T15:12:30.950 ,2,0,,0,0.,4.8,0.,4.8,,0,0.,4.8,0.,4.8
1989-08-26T15:12:35.750 ,2,0,,0,1.,4.8,0.,4.8,,0,0.,4.8,0.,4.8
1989-08-26T15:12:40.550 ,2,0,,0,0.,4.8,0.,4.8,,0,0.,4.8,0.,4.8
1989-08-26T15:12:45.350 ,2,0,,0,0.,4.8,0.,4.8,,0,0.,4.8,0.,4.8
1989-08-26T15:12:50.150 ,1,0,,0,0.,4.8,0.,4.8,,0,0.,4.8,0.,4.8
1989-08-26T15:12:54.950 ,1,0,,0,0.,4.8,0.,4.8,,0,0.,4.8,0.,4.8
1989-08-26T15:12:59.750 ,1,0,,0,1.,4.8,0.,4.8,,0,0.,4.8,0.,4.8
1989-08-26T15:13:04.550 ,1,0,,0,0.,4.8,0.,4.8,,0,0.,4.8,0.,4.8
1989-08-26T15:13:09.350 ,1,0,,0,0.,4.8,0.,4.8,,0,0.,4.8,0.,4.8
1989-08-26T15:13:14.150 ,1,0,,0,0.,4.8,0.,4.8,,0,0.,4.8,0.,4.8
1989-08-26T15:13:18.950 ,1,0,,0,0.,4.8,0.,4.8,,0,0.,4.8,0.,4.8
1989-08-26T15:13:23.750 ,1,0,,0,0.,4.8,0.,4.8,,0,0.,4.8,0.,4.8
1989-08-26T15:13:28.550 ,1,0,,0,0.,4.8,0.,4.8,,0,0.,4.8,0.,4.8
1989-08-26T15:13:33.350 ,1,0,,0,0.,4.8,0.,4.8,,0,0.,4.8,0.,4.8
1989-08-26T15:13:38.150 ,0,0,,0,0.,4.8,0.,4.8,,0,0.,4.8,0.,4.8
1989-08-26T15:13:42.950 ,0,0,,0,0.,4.8,0.,4.8,,0,0.,4.8,0.,4.8
1989-08-26T15:13:47.750 ,0,0,,0,1.,4.8,0.,4.8,,0,0.,4.8,0.,4.8
1989-08-26T15:13:52.550 ,0,0,,0,0.,4.8,0.,4.8,,0,0.,4.8,0.,4.8
1989-08-26T15:13:57.350 ,0,0,,0,0.,4.8,0.,4.8,,0,0.,4.8,0.,4.8
1989-08-26T15:14:02.150 ,0,0,,0,0.,4.8,0.,4.8,,0,0.,4.8,0.,4.8
1989-08-26T15:14:06.950 ,0,0,,0,0.,4.8,0.,4.8,,0,0.,4.8,0.,4.8
1989-08-26T15:14:11.750 ,0,0,,0,0.,4.8,0.,4.8,,0,0.,4.8,0.,4.8
1989-08-26T15:14:16.550 ,0,0,,0,0.,4.8,0.,4.8,,0,0.,4.8,0.,4.8
1989-08-26T15:14:21.350 ,0,0,,0,0.,4.8,0.,4.8,,0,0.,4.8,0.,4.8
1989-08-26T15:14:26.150 ,0,0,,0,0.,4.8,0.,4.8,,0,0.,4.8,0.,4.8
1989-08-26T15:14:30.950 ,0,0,,0,0.,4.8,0.,4.8,,0,0.,4.8,0.,4.8
1989-08-26T15:14:35.750 ,0,0,,0,1.,4.8,0.,4.8,,0,0.,4.8,0.,4.8
1989-08-26T15:14:40.550 ,0,0,,0,0.,4.8,0.,4.8,,0,0.,4.8,0.,4.8
1989-08-26T15:14:45.350 ,0,0,,0,0.,4.8,0.,4.8,,0,0.,4.8,0.,4.8
1989-08-26T15:14:50.150 ,0,0,,0,0.,4.8,0.,4.8,,0,0.,4.8,0.,4.8
1989-08-26T15:14:54.950 ,0,0,,0,0.,4.8,0.,4.8,,0,0.,4.8,0.,4.8
1989-08-26T15:14:59.750 ,0,0,,0,0.,4.8,0.,4.8,,0,0.,4.8,0.,4.8
1989-08-26T15:15:04.550 ,0,0,,0,0.,4.8,0.,4.8,,0,0.,4.8,0.,4.8
1989-08-26T15:15:09.350 ,0,0,,0,0.,4.8,0.,4.8,,0,0.,4.8,0.,4.8
1989-08-26T15:15:14.150 ,1,0,,0,0.,4.8,0.,4.8,,0,0.,4.8,0.,4.8
1989-08-26T15:15:18.950 ,1,0,,0,0.,4.8,0.,4.8,,0,0.,4.8,0.,4.8
1989-08-26T15:15:23.750 ,1,0,,0,1.,4.8,0.,4.8,,0,0.,4.8,0.,4.8
1989-08-26T15:15:28.550 ,1,0,,0,0.,4.8,0.,4.8,,0,0.,4.8,0.,4.8
1989-08-26T15:15:33.350 ,1,0,,0,0.,4.8,0.,4.8,,0,0.,4.8,0.,4.8
1989-08-26T15:15:38.150 ,1,0,,0,0.,4.8,0.,4.8,,0,0.,4.8,0.,4.8
1989-08-26T15:15:42.950 ,1,0,,0,0.,4.8,0.,4.8,,0,0.,4.8,0.,4.8
1989-08-26T15:15:47.750 ,1,0,,0,0.,4.8,0.,4.8,,0,0.,4.8,0.,4.8
1989-08-26T15:15:52.550 ,1,0,,0,0.,4.8,0.,4.8,,0,0.,4.8,0.,4.8
1989-08-26T15:15:57.350 ,1,0,,0,0.,4.8,0.,4.8,,0,0.,4.8,0.,4.8
1989-08-26T15:16:02.150 ,2,0,,0,0.,4.8,0.,4.8,,0,0.,4.8,0.,4.8
1989-08-26T15:16:06.950 ,2,0,,0,0.,4.8,0.,4.8,,0,0.,4.8,0.,4.8
1989-08-26T15:16:11.750 ,2,0,,0,1.,4.8,0.,4.8,,0,0.,4.8,0.,4.8
1989-08-26T15:16:16.550 ,2,0,,0,0.,4.8,0.,4.8,,0,0.,4.8,0.,4.8
1989-08-26T15:16:21.350 ,2,0,,0,0.,4.8,0.,4.8,,0,0.,4.8,0.,4.8
1989-08-26T15:16:26.150 ,2,0,,0,0.,4.8,0.,4.8,,0,0.,4.8,0.,4.8
1989-08-26T15:16:30.950 ,2,0,,0,0.,4.8,0.,4.8,,0,0.,4.8,0.,4.8
1989-08-26T15:16:35.750 ,2,0,,0,0.,4.8,0.,4.8,,0,0.,4.8,0.,4.8
1989-08-26T15:16:40.550 ,2,0,,0,0.,4.8,0.,4.8,,0,0.,4.8,0.,4.8
1989-08-26T15:16:45.350 ,2,0,,0,0.,4.8,0.,4.8,,0,0.,4.8,0.,4.8
1989-08-26T15:16:50.150 ,3,0,,0,0.,4.8,0.,4.8,,0,0.,4.8,0.,4.8
1989-08-26T15:16:54.950 ,3,0,,0,0.,4.8,0.,4.8,,0,0.,4.8,0.,4.8
1989-08-26T15:16:59.750 ,3,0,,0,1.,4.8,0.,4.8,,0,0.,4.8,0.,4.8
1989-08-26T15:17:04.550 ,3,0,,0,0.,4.8,0.,4.8,,0,0.,4.8,0.,4.8
1989-08-26T15:17:09.350 ,3,0,,0,0.,4.8,0.,4.8,,0,0.,4.8,0.,4.8
1989-08-26T15:17:14.150 ,3,0,,0,0.,4.8,0.,4.8,,0,0.,4.8,0.,4.8
1989-08-26T15:17:18.950 ,3,0,,0,1.,4.8,0.,4.8,,0,0.,4.8,0.,4.8
1989-08-26T15:17:23.750 ,3,0,,0,0.,4.8,0.,4.8,,0,0.,4.8,0.,4.8
1989-08-26T15:17:28.550 ,3,0,,0,0.,4.8,0.,4.8,,0,0.,4.8,0.,4.8
1989-08-26T15:17:33.350 ,3,0,,0,0.,4.8,0.,4.8,,0,0.,4.8,0.,4.8
1989-08-26T15:17:38.150 ,4,0,,0,0.,4.8,0.,4.8,,0,0.,4.8,0.,4.8
1989-08-26T15:17:42.950 ,4,0,,0,0.,4.8,0.,4.8,,0,0.,4.8,0.,4.8
1989-08-26T15:17:47.750 ,4,0,,0,1.,4.8,0.,4.8,,0,0.,4.8,0.,4.8
1989-08-26T15:17:52.550 ,4,0,,0,0.,4.8,0.,4.8,,0,0.,4.8,0.,4.8
1989-08-26T15:17:57.350 ,4,0,,0,0.,4.8,0.,4.8,,0,0.,4.8,0.,4.8
1989-08-26T15:18:02.150 ,4,0,,0,0.,4.8,0.,4.8,,0,0.,4.8,0.,4.8
1989-08-26T15:18:06.950 ,4,0,,0,0.,4.8,0.,4.8,,0,0.,4.8,0.,4.8
1989-08-26T15:18:11.750 ,4,0,,0,0.,4.8,0.,4.8,,0,0.,4.8,0.,4.8
1989-08-26T15:18:16.550 ,4,0,,0,0.,4.8,0.,4.8,,0,0.,4.8,0.,4.8
1989-08-26T15:18:21.350 ,4,0,,0,0.,4.8,0.,4.8,,0,0.,4.8,0.,4.8
1989-08-26T15:18:26.150 ,5,0,,0,0.,4.8,0.,4.8,,0,0.,4.8,0.,4.8
1989-08-26T15:18:30.950 ,5,0,,0,0.,4.8,0.,4.8,,0,0.,4.8,0.,4.8
1989-08-26T15:18:35.750 ,5,0,,0,1.,4.8,0.,4.8,,0,0.,4.8,0.,4.8
1989-08-26T15:18:40.550 ,5,0,,0,0.,4.8,0.,4.8,,0,0.,4.8,0.,4.8
1989-08-26T15:18:45.350 ,5,0,,0,0.,4.8,0.,4.8,,0,0.,4.8,0.,4.8
1989-08-26T15:18:50.150 ,5,0,,0,0.,4.8,0.,4.8,,0,0.,4.8,0.,4.8
1989-08-26T15:18:54.950 ,5,0,,0,0.,4.8,0.,4.8,,0,0.,4.8,0.,4.8
1989-08-26T15:18:59.750 ,5,0,,0,0.,4.8,0.,4.8,,0,0.,4.8,0.,4.8
1989-08-26T15:19:04.550 ,5,0,,0,0.,4.8,0.,4.8,,0,0.,4.8,0.,4.8
1989-08-26T15:19:09.350 ,5,0,,0,0.,4.8,0.,4.8,,0,0.,4.8,0.,4.8
1989-08-26T15:19:14.150 ,6,0,,0,0.,4.8,0.,4.8,,0,0.,4.8,0.,4.8
1989-08-26T15:19:18.950 ,6,0,,0,0.,4.8,0.,4.8,,0,0.,4.8,0.,4.8
1989-08-26T15:19:23.750 ,6,0,,0,1.,4.8,0.,4.8,,0,0.,4.8,0.,4.8
1989-08-26T15:19:28.550 ,6,0,,0,0.,4.8,0.,4.8,,0,0.,4.8,0.,4.8
1989-08-26T15:19:33.350 ,6,0,,0,0.,4.8,0.,4.8,,0,0.,4.8,0.,4.8
1989-08-26T15:19:38.150 ,6,0,,0,1.,4.8,0.,4.8,,0,0.,4.8,0.,4.8
1989-08-26T15:19:42.950 ,6,0,,0,0.,4.8,0.,4.8,,0,0.,4.8,0.,4.8
1989-08-26T15:19:47.750 ,6,0,,0,0.,4.8,0.,4.8,,0,0.,4.8,0.,4.8
1989-08-26T15:19:52.550 ,6,0,,0,0.,4.8,0.,4.8,,0,0.,4.8,0.,4.8
1989-08-26T15:19:57.350 ,6,0,,0,0.,4.8,0.,4.8,,0,0.,4.8,0.,4.8
1989-08-26T15:20:02.150 ,7,0,,0,0.,4.8,0.,4.8,,0,0.,4.8,0.,4.8
1989-08-26T15:20:06.950 ,7,0,,0,0.,4.8,0.,4.8,,0,0.,4.8,0.,4.8
1989-08-26T15:20:11.750 ,7,0,,0,2.,4.8,0.,4.8,,0,0.,4.8,0.,4.8
1989-08-26T15:20:16.550 ,7,0,,0,5.,4.8,0.,4.8,,0,0.,4.8,0.,4.8
1989-08-26T15:20:21.350 ,7,0,,0,1.,4.8,0.,4.8,,0,0.,4.8,0.,4.8
1989-08-26T15:20:26.150 ,7,0,,0,3.,4.8,0.,4.8,,0,0.,4.8,0.,4.8
1989-08-26T15:20:30.950 ,7,0,,0,3.,4.8,0.,4.8,,0,0.,4.8,0.,4.8
1989-08-26T15:20:35.750 ,7,0,,0,4.,4.8,0.,4.8,,0,0.,4.8,0.,4.8
1989-08-26T15:20:40.550 ,7,0,,0,0.,4.8,0.,4.8,,0,0.,4.8,0.,4.8
1989-08-26T15:20:45.350 ,7,0,,0,0.,4.8,0.,4.8,,0,0.,4.8,0.,4.8
1989-08-26T15:20:50.150 ,7,0,,0,0.,4.8,0.,4.8,,0,0.,4.8,0.,4.8
1989-08-26T15:20:54.950 ,7,0,,0,0.,4.8,0.,4.8,,0,0.,4.8,0.,4.8
1989-08-26T15:20:59.750 ,7,0,,0,1.,4.8,0.,4.8,,0,0.,4.8,0.,4.8
1989-08-26T15:21:04.550 ,7,0,,0,5.,4.8,0.,4.8,,0,0.,4.8,0.,4.8
1989-08-26T15:21:09.350 ,7,0,,0,6.,4.8,0.,4.8,,0,0.,4.8,0.,4.8
1989-08-26T15:21:14.150 ,7,0,,0,1.,4.8,0.,4.8,,0,0.,4.8,0.,4.8
1989-08-26T15:21:18.950 ,7,0,,0,5.,4.8,0.,4.8,,0,0.,4.8,0.,4.8
1989-08-26T15:21:23.750 ,7,0,,0,6.,4.8,0.,4.8,,0,0.,4.8,0.,4.8
1989-08-26T15:21:28.550 ,7,0,,0,0.,4.8,0.,4.8,,0,0.,4.8,0.,4.8
1989-08-26T15:21:33.350 ,7,0,,0,0.,4.8,0.,4.8,,0,0.,4.8,0.,4.8
1989-08-26T15:21:38.150 ,6,0,,0,0.,4.8,0.,4.8,,0,0.,4.8,0.,4.8
1989-08-26T15:21:42.950 ,6,0,,0,0.,4.8,0.,4.8,,0,0.,4.8,0.,4.8
1989-08-26T15:21:47.750 ,6,0,,0,1.,4.8,0.,4.8,,0,0.,4.8,0.,4.8
1989-08-26T15:21:52.550 ,6,0,,0,0.,4.8,0.,4.8,,0,0.,4.8,0.,4.8
1989-08-26T15:21:57.350 ,6,0,,0,0.,4.8,0.,4.8,,0,0.,4.8,0.,4.8
1989-08-26T15:22:02.150 ,6,0,,0,0.,4.8,0.,4.8,,0,0.,4.8,0.,4.8
1989-08-26T15:22:06.950 ,6,0,,0,0.,4.8,0.,4.8,,0,0.,4.8,0.,4.8
1989-08-26T15:22:11.750 ,6,0,,0,0.,4.8,0.,4.8,,0,0.,4.8,0.,4.8
1989-08-26T15:22:16.550 ,6,0,,0,0.,4.8,0.,4.8,,0,0.,4.8,0.,4.8
1989-08-26T15:22:21.350 ,6,0,,0,0.,4.8,0.,4.8,,0,0.,4.8,0.,4.8
1989-08-26T15:22:26.150 ,5,0,,0,0.,4.8,0.,4.8,,0,0.,4.8,0.,4.8
1989-08-26T15:22:30.950 ,5,0,,0,0.,4.8,0.,4.8,,0,0.,4.8,0.,4.8
1989-08-26T15:22:35.750 ,5,0,,0,1.,4.8,0.,4.8,,0,0.,4.8,0.,4.8
1989-08-26T15:22:40.550 ,5,0,,0,0.,4.8,0.,4.8,,0,0.,4.8,0.,4.8
1989-08-26T15:22:45.350 ,5,0,,0,0.,4.8,0.,4.8,,0,0.,4.8,0.,4.8
1989-08-26T15:22:50.150 ,5,0,,0,0.,4.8,0.,4.8,,0,0.,4.8,0.,4.8
1989-08-26T15:22:54.950 ,5,0,,0,0.,4.8,0.,4.8,,0,0.,4.8,0.,4.8
1989-08-26T15:22:59.750 ,5,0,,0,0.,4.8,0.,4.8,,0,0.,4.8,0.,4.8
1989-08-26T15:23:04.550 ,5,0,,0,0.,4.8,0.,4.8,,0,0.,4.8,0.,4.8
1989-08-26T15:23:09.350 ,5,0,,0,0.,4.8,0.,4.8,,0,0.,4.8,0.,4.8
1989-08-26T15:23:14.150 ,4,0,,0,0.,4.8,0.,4.8,,0,0.,4.8,0.,4.8
1989-08-26T15:23:18.950 ,4,0,,0,0.,4.8,0.,4.8,,0,0.,4.8,0.,4.8
1989-08-26T15:23:23.750 ,4,0,,0,1.,4.8,0.,4.8,,0,0.,4.8,0.,4.8
1989-08-26T15:23:28.550 ,4,0,,0,0.,4.8,0.,4.8,,0,0.,4.8,0.,4.8
1989-08-26T15:23:33.350 ,4,0,,0,0.,4.8,0.,4.8,,0,0.,4.8,0.,4.8
1989-08-26T15:23:38.150 ,4,0,,0,0.,4.8,0.,4.8,,0,0.,4.8,0.,4.8
1989-08-26T15:23:42.950 ,4,0,,0,0.,4.8,0.,4.8,,0,0.,4.8,0.,4.8
1989-08-26T15:23:47.750 ,4,0,,0,0.,4.8,0.,4.8,,0,0.,4.8,0.,4.8
1989-08-26T15:23:52.550 ,4,0,,0,0.,4.8,0.,4.8,,0,0.,4.8,0.,4.8
1989-08-26T15:23:57.350 ,4,0,,0,0.,4.8,0.,4.8,,0,0.,4.8,0.,4.8
1989-08-26T15:24:02.150 ,3,0,,0,0.,4.8,0.,4.8,,0,0.,4.8,0.,4.8
1989-08-26T15:24:06.950 ,3,0,,0,0.,4.8,0.,4.8,,0,0.,4.8,0.,4.8
1989-08-26T15:24:11.750 ,3,0,,0,2.,4.8,0.,4.8,,0,0.,4.8,0.,4.8
1989-08-26T15:24:16.550 ,3,0,,0,0.,4.8,0.,4.8,,0,0.,4.8,0.,4.8
1989-08-26T15:24:21.350 ,3,0,,0,0.,4.8,0.,4.8,,0,0.,4.8,0.,4.8
1989-08-26T15:24:26.150 ,3,0,,0,1.,4.8,0.,4.8,,0,0.,4.8,0.,4.8
1989-08-26T15:24:30.950 ,3,0,,0,0.,4.8,0.,4.8,,0,0.,4.8,0.,4.8
1989-08-26T15:24:35.750 ,3,0,,0,0.,4.8,0.,4.8,,0,0.,4.8,0.,4.8
1989-08-26T15:24:40.550 ,3,0,,0,0.,4.8,0.,4.8,,0,0.,4.8,0.,4.8
1989-08-26T15:24:45.350 ,3,0,,0,0.,4.8,0.,4.8,,0,0.,4.8,0.,4.8
1989-08-26T15:24:50.150 ,2,0,,0,0.,4.8,0.,4.8,,0,0.,4.8,0.,4.8
1989-08-26T15:24:54.950 ,2,0,,0,0.,4.8,0.,4.8,,0,0.,4.8,0.,4.8
1989-08-26T15:24:59.750 ,2,0,,0,1.,4.8,0.,4.8,,0,0.,4.8,0.,4.8
1989-08-26T15:25:04.550 ,2,0,,0,0.,4.8,0.,4.8,,0,0.,4.8,0.,4.8
1989-08-26T15:25:09.350 ,2,0,,0,0.,4.8,0.,4.8,,0,0.,4.8,0.,4.8
1989-08-26T15:25:14.150 ,2,0,,0,0.,4.8,0.,4.8,,0,0.,4.8,0.,4.8
1989-08-26T15:25:18.950 ,2,0,,0,0.,4.8,0.,4.8,,0,0.,4.8,0.,4.8
1989-08-26T15:25:23.750 ,2,0,,0,0.,4.8,0.,4.8,,0,0.,4.8,0.,4.8
1989-08-26T15:25:28.550 ,2,0,,0,0.,4.8,0.,4.8,,0,0.,4.8,0.,4.8
1989-08-26T15:25:33.350 ,2,0,,0,0.,4.8,0.,4.8,,0,0.,4.8,0.,4.8
1989-08-26T15:25:38.150 ,1,0,,0,0.,4.8,0.,4.8,,0,0.,4.8,0.,4.8
1989-08-26T15:25:42.950 ,1,0,,0,0.,4.8,0.,4.8,,0,0.,4.8,0.,4.8
1989-08-26T15:25:47.750 ,1,0,,0,1.,4.8,0.,4.8,,0,0.,4.8,0.,4.8
1989-08-26T15:25:52.550 ,1,0,,0,0.,4.8,0.,4.8,,0,0.,4.8,0.,4.8
1989-08-26T15:25:57.350 ,1,0,,0,0.,4.8,0.,4.8,,0,0.,4.8,0.,4.8
1989-08-26T15:26:02.150 ,1,0,,0,0.,4.8,0.,4.8,,0,0.,4.8,0.,4.8
1989-08-26T15:26:06.950 ,1,0,,0,0.,4.8,0.,4.8,,0,0.,4.8,0.,4.8
1989-08-26T15:26:11.750 ,1,0,,0,0.,4.8,0.,4.8,,0,0.,4.8,0.,4.8
1989-08-26T15:26:16.550 ,1,0,,0,0.,4.8,0.,4.8,,0,0.,4.8,0.,4.8
1989-08-26T15:26:21.350 ,1,0,,0,0.,4.8,0.,4.8,,0,0.,4.8,0.,4.8
1989-08-26T15:26:26.150 ,0,0,,0,0.,4.8,0.,4.8,,0,0.,4.8,0.,4.8
1989-08-26T15:26:30.950 ,0,0,,0,0.,4.8,0.,4.8,,0,0.,4.8,0.,4.8
1989-08-26T15:26:35.750 ,0,0,,0,1.,4.8,0.,4.8,,0,0.,4.8,0.,4.8
1989-08-26T15:26:40.550 ,0,0,,0,0.,4.8,0.,4.8,,0,0.,4.8,0.,4.8
1989-08-26T15:26:45.350 ,0,0,,0,0.,4.8,0.,4.8,,0,0.,4.8,0.,4.8
1989-08-26T15:26:50.150 ,0,0,,0,0.,4.8,0.,4.8,,0,0.,4.8,0.,4.8
1989-08-26T15:26:54.950 ,0,0,,0,0.,4.8,0.,4.8,,0,0.,4.8,0.,4.8
1989-08-26T15:26:59.750 ,0,0,,0,0.,4.8,0.,4.8,,0,0.,4.8,0.,4.8
1989-08-26T15:27:04.550 ,0,0,,0,0.,4.8,0.,4.8,,0,0.,4.8,0.,4.8
1989-08-26T15:27:09.350 ,0,0,,0,0.,4.8,0.,4.8,,0,0.,4.8,0.,4.8
1989-08-26T15:27:14.150 ,0,0,,0,0.,4.8,0.,4.8,,0,0.,4.8,0.,4.8
1989-08-26T15:27:18.950 ,0,0,,0,0.,4.8,0.,4.8,,0,0.,4.8,0.,4.8
1989-08-26T15:27:23.750 ,0,0,,0,1.,4.8,0.,4.8,,0,0.,4.8,0.,4.8
1989-08-26T15:27:28.550 ,0,0,,0,0.,4.8,0.,4.8,,0,0.,4.8,0.,4.8
1989-08-26T15:27:33.350 ,0,0,,0,0.,4.8,0.,4.8,,0,0.,4.8,0.,4.8
1989-08-26T15:27:38.150 ,0,0,,0,0.,4.8,0.,4.8,,0,0.,4.8,0.,4.8
1989-08-26T15:27:42.950 ,0,0,,0,0.,4.8,0.,4.8,,0,0.,4.8,0.,4.8
1989-08-26T15:27:47.750 ,0,0,,0,0.,4.8,0.,4.8,,0,0.,4.8,0.,4.8
1989-08-26T15:27:52.550 ,0,0,,0,0.,4.8,0.,4.8,,0,0.,4.8,0.,4.8
1989-08-26T15:27:57.350 ,0,0,,0,0.,4.8,0.,4.8,,0,0.,4.8,0.,4.8
1989-08-26T15:28:02.150 ,1,0,,0,0.,4.8,0.,4.8,,0,0.,4.8,0.,4.8
1989-08-26T15:28:06.950 ,1,0,,0,0.,4.8,0.,4.8,,0,0.,4.8,0.,4.8
1989-08-26T15:28:11.750 ,1,0,,0,1.,4.8,0.,4.8,,0,0.,4.8,0.,4.8
1989-08-26T15:28:16.550 ,1,0,,0,0.,4.8,0.,4.8,,0,0.,4.8,0.,4.8
1989-08-26T15:28:21.350 ,1,0,,0,0.,4.8,0.,4.8,,0,0.,4.8,0.,4.8
1989-08-26T15:28:26.150 ,1,0,,0,0.,4.8,0.,4.8,,0,0.,4.8,0.,4.8
1989-08-26T15:28:30.950 ,1,0,,0,0.,4.8,0.,4.8,,0,0.,4.8,0.,4.8
1989-08-26T15:28:35.750 ,1,0,,0,1.,4.8,0.,4.8,,0,0.,4.8,0.,4.8
1989-08-26T15:28:40.550 ,1,0,,0,0.,4.8,0.,4.8,,0,0.,4.8,0.,4.8
1989-08-26T15:28:45.350 ,1,0,,0,0.,4.8,0.,4.8,,0,0.,4.8,0.,4.8
1989-08-26T15:28:50.150 ,2,0,,0,0.,4.8,0.,4.8,,0,0.,4.8,0.,4.8
1989-08-26T15:28:54.950 ,2,0,,0,0.,4.8,0.,4.8,,0,0.,4.8,0.,4.8
1989-08-26T15:28:59.750 ,2,0,,0,1.,4.8,0.,4.8,,0,0.,4.8,0.,4.8
1989-08-26T15:29:04.550 ,2,0,,0,0.,4.8,0.,4.8,,0,0.,4.8,0.,4.8
1989-08-26T15:29:09.350 ,2,0,,0,0.,4.8,0.,4.8,,0,0.,4.8,0.,4.8
1989-08-26T15:29:14.150 ,2,0,,0,0.,4.8,0.,4.8,,0,0.,4.8,0.,4.8
1989-08-26T15:29:18.950 ,2,0,,0,0.,4.8,0.,4.8,,0,0.,4.8,0.,4.8
1989-08-26T15:29:23.750 ,2,0,,0,0.,4.8,0.,4.8,,0,0.,4.8,0.,4.8
1989-08-26T15:29:28.550 ,2,0,,0,0.,4.8,0.,4.8,,0,0.,4.8,0.,4.8
1989-08-26T15:29:33.350 ,2,0,,0,0.,4.8,0.,4.8,,0,0.,4.8,0.,4.8
1989-08-26T15:29:38.150 ,3,0,,0,0.,4.8,0.,4.8,,0,0.,4.8,0.,4.8
1989-08-26T15:29:42.950 ,3,0,,0,0.,4.8,0.,4.8,,0,0.,4.8,0.,4.8
1989-08-26T15:29:47.750 ,3,0,,0,1.,4.8,0.,4.8,,0,0.,4.8,0.,4.8
1989-08-26T15:29:52.550 ,3,0,,0,0.,4.8,0.,4.8,,0,0.,4.8,0.,4.8
1989-08-26T15:29:57.350 ,3,0,,0,0.,4.8,0.,4.8,,0,0.,4.8,0.,4.8
1989-08-26T15:30:02.150 ,3,0,,0,0.,4.8,0.,4.8,,0,0.,4.8,0.,4.8
1989-08-26T15:30:06.950 ,3,0,,0,0.,4.8,0.,4.8,,0,0.,4.8,0.,4.8
1989-08-26T15:30:11.750 ,3,0,,0,0.,4.8,0.,4.8,,0,0.,4.8,0.,4.8
1989-08-26T15:30:16.550 ,3,0,,0,0.,4.8,0.,4.8,,0,0.,4.8,0.,4.8
1989-08-26T15:30:21.350 ,3,0,,0,0.,4.8,0.,4.8,,0,0.,4.8,0.,4.8